Regional Weather Roundup
Issued by NWS

Home | Current Version | Previous Version | Graphics & Text | Print | Product List | Glossary On
Versions: 1 2 3 4 5 6 7 8 9 10 11 12 13 14 15 16 17 18 19 20 21 22 23 24 25 26 27 28 29 30 31 32 33 34 35 36 37 38 39 40 41 42 43 44 45 46 47 48 49 50
006
ASUS45 KTFX 171810
RWRMT
MONTANA REGIONAL WEATHER ROUNDUP
NATIONAL WEATHER SERVICE GREAT FALLS MT
1100 AM MST SUN DEC 17 2017

NOTE: "FAIR" INDICATES FEW OR NO CLOUDS BELOW 12000 FEET WITH NO
SIGNIFICANT WEATHER AND/OR OBSTRUCTIONS TO VISIBILITY.

MTZ001>007-043-171900-
WEST OF THE DIVIDE

CITY           SKY/WX    TMP DP  RH WIND       PRES   REMARKS
KALISPELL      CLOUDY    29  23  78 S10       30.08F WCI  20
MISSOULA       CLOUDY    21  18  88 CALM      30.15F
BUTTE          CLOUDY    15  12  88 CALM      30.02F
MULLAN PASS    LGT SNOW  24  19  81 VRB6      30.00S VSB 1   WCI  17
ANACONDA         N/A     27  12  54 S18       30.03S WCI  13
DEER LODGE       N/A     19  16  86 N5        30.07S
EUREKA           N/A     30  21  69 MISG      30.05S
HAMILTON         N/A     34  16  47 S8        30.11F WCI  27
LIBBY            N/A     27  21  80 CALM      30.07F
RONAN            N/A     26  21  81 CALM      30.13R
$$

MTZ008-052>055-171900-
SOUTHWEST MONTANA

CITY           SKY/WX    TMP DP  RH WIND       PRES   REMARKS
BOZEMAN        CLOUDY    13   9  84 E3        30.05S
DILLON         CLOUDY    19  11  70 W5        30.07R
W YELLOWSTONE  CLOUDY    14  12  92 SW10G17   30.07F WCI   1
ENNIS          CLOUDY    21  10  63 S20G26    30.11R WCI   6
THREE FORKS      N/A     12   9  88 CALM      30.02F
TWIN BRIDGES     N/A     21  10  62 CALM      30.05S
$$

MTZ009-010-012-014-046-048-049-054-171900-
EAST SLOPES AND CENTRAL MONTANA

CITY           SKY/WX    TMP DP  RH WIND       PRES   REMARKS
CUT BANK       FAIR      33  21  61 W36G43    29.72R WCI  18
GREAT FALLS    FAIR      34  16  47 SW23G40   29.82R WCI  22
MALMSTROM AFB  FAIR      35  19  51 SW32G44   29.83S WCI  22
HELENA         CLOUDY    31  18  58 NW9       30.01R WCI  23
BOWMANS CRNR   FAIR      30  16  56 S31G43    29.82F WCI  15
CHOTEAU          N/A     41  18  38 W29G38    29.77F
FAIRFIELD        N/A     40  18  41 SW25G32   29.80R
POWER          FAIR      34  20  56 SW20G28   29.79S WCI  22
RAYNESFORD     FAIR      33  18  54 SW29G38   29.79R WCI  20
ULM            FAIR      37  20  49 SW21G33   29.86R WCI  26
$$

MTZ011-013-016-021-045-047-050-051-171900-
NORTH CENTRAL MONTANA

CITY           SKY/WX    TMP DP  RH WIND       PRES   REMARKS
HAVRE          PTSUNNY   33  24  69 SW24G33   29.75S WCI  20
LEWISTOWN      FAIR      32  17  54 SW20      29.80R WCI  20
N BAR RANCH    FAIR      28  12  50 CALM      29.81S
CHINOOK          N/A     36  21  55 SW15G24   29.74F WCI  26
DENTON         FAIR      36  19  49 MISG      29.75F
GEYSER         FAIR      33  20  59 W29G35    29.77F WCI  19
GRASS RANGE    PTSUNNY   32  18  55 W12       29.76S WCI  23
STANFORD       FAIR      33  22  65 W18       29.77S WCI  22
$$

MTZ017>020-022>027-061-062-171900-
NORTHEAST MONTANA

CITY           SKY/WX    TMP DP  RH WIND       PRES   REMARKS
GLASGOW        FAIR      30  25  81 S8        29.78F WCI  22
GLENDIVE       FAIR      34  26  72 SW15      29.86F WCI  24
JORDAN           N/A     31  19  61 SW15      29.80F WCI  20
SIDNEY         FAIR      31  25  78 S13       29.85F WCI  21
WOLF POINT     FAIR      32  25  75 SW12      29.81F WCI  23
MALTA          CLOUDY    34  21  60 SW7       29.76F WCI  28
PLENTYWOOD       N/A     28  23  80 S14       29.78F WCI  17
POPLAR           N/A     30  25  80 SW10      29.82F WCI  21
SCOBEY           N/A     27  17  65 S2        29.74F
$$

MTZ028>42-056>058-171900-
SOUTHCENTRAL AND SOUTHEAST MONTANA

CITY           SKY/WX    TMP DP  RH WIND       PRES   REMARKS
BAKER          FAIR      35  28  75 SW20      29.88F WCI  24
BILLINGS       FAIR      29  23  78 SW17      29.86F WCI  17
LIVINGSTON     MIX PCPN  27  16  63 SW39G47   29.93R WCI   9
MILES CITY     FAIR      34  28  79 SW10      29.87F WCI  26
BIG TIMBER     HAZE      27  18  69 W53G63    29.84S VSB 1/4 WCI   6
EKALAKA          N/A     33  23  67 S6        29.86F WCI  27
FORSYTH          N/A     30  27  86 W6        29.88F WCI  24
HARLOWTON      FAIR      26  18  72 W35G41    29.84R WCI   8
LAUREL           N/A     30  25  80 W15       29.89F WCI  19
$$

REGIONAL REPORTS...DAKOTAS

CITY           SKY/WX    TMP DP  RH WIND       PRES   REMARKS
WILLISTON      FAIR      31  24  75 S7        29.84F WCI  24
MINOT          FAIR      36  21  54 S13G18    29.87F WCI  27
DICKINSON      FAIR      36  23  59 SW16      29.87F WCI  26
BEACH          FAIR      34  28  80 SW16      29.88F WCI  23
CROSBY         FAIR      32  23  69 S16       29.81F WCI  21
TIOGA          CLOUDY    30  27  86 S17       29.84F WCI  18
BISMARCK       FAIR      31  26  82 CALM      29.97F
GRAND FORKS    PTSUNNY   23  21  92 SW7       29.97F WCI  15
FARGO          FAIR      28  26  92 S8        30.01F WCI  20
BUFFALO SD       N/A     38  27  64 S16       29.83F WCI  29
RAPID CITY     CLOUDY    34  25  69 S15       29.93F WCI  24
$$

REGIONAL REPORTS...WYOMING/IDAHO/WASHINGTON

CITY           SKY/WX    TMP DP  RH WIND       PRES   REMARKS
GILLETTE       FAIR      27  20  75 S8        29.86F WCI  19
SHERIDAN       FOG       20  19  96 CALM      29.88F VSB 1/4
BUFFALO WY     FAIR      21  16  81 S5        29.84F
CODY           FAIR      25  14  63 VRB5      29.89S
YELLOWSTONE LA   N/A     13  10  88 SW3       30.04F
IDAHO FALLS    CLOUDY    22  20  92 SW12      30.22R FOG     WCI  10
SALMON         CLOUDY    16  11  80 CALM      30.26R
BOISE          FAIR      31  20  63 CALM      30.28S
SPOKANE        LGT SNOW  30  30 100 S8        30.12F FOG     WCI  22
$$

REGIONAL REPORTS...ALBERTA

CITY           SKY/WX    TMP DP  RH WIND       PRES   REMARKS
EDMONTON       MOSUNNY   43  23  45 W24G35    29.47S
CALGARY        PTSUNNY   43  16  33 W20G29    29.61R
LETHBRIDGE     CLOUDY    37  19  48 W36G45    29.69R WCI  24
MEDICINE HAT   PTSUNNY   37  27  65 SW9       29.67S WCI  31
$$

REGIONAL REPORTS...SASKATCHEWAN

CITY           SKY/WX    TMP DP  RH WIND       PRES   REMARKS
SWIFT CURRENT  CLOUDY    27  18  69 SW18G25   29.61S WCI  13
REGINA         PTSUNNY   28  21  74 S18       29.68F WCI  16
SASKATOON      PTSUNNY   27  19  74 SW16      29.56F WCI  14
$$




USA.gov is the U.S. government's official web portal to all federal, state and local government web resources and services.